Weather History for PABI - January, 2013

Change the Weather History Date:

Tuesday, January 8, 2013

  Actual Average Record
Temperature  
Mean Temperature 6 °F -  
Max Temperature 10 °F 3 °F 37 °F (2001)
Min Temperature 1 °F -5 °F -32 °F (2007)
Degree Days  
Heating Degree Days 60    
Moisture  
Dew Point 1 °F    
Average Humidity 84    
Maximum Humidity 92    
Minimum Humidity 75    
Precipitation  
Precipitation 0.02 in - - ()
Sea Level Pressure  
Sea Level Pressure 29.89 in    
Wind  
Wind Speed 3 mph (West)    
Max Wind Speed 8 mph    
Max Gust Speed -    
Visibility 6 miles    
Events Fog , Snow    
Averages and records for this station are not official NWS values.
T = Trace of Precipitation, MM = Missing Value Source: NWS Daily Summary

Daily Weather History Graph

Daily Weather History Graph

Search for Another Location

Airport or City:

Trip Planner

Search our weather history database for the weather conditions in past years. The results will help you decide how hot, cold, wet, or windy it might be!

Date:

Astronomy

Jan. 08, 2013 Rise Set
Actual Time 10:21 AM AKST 3:18 PM AKST
Civil Twilight 9:10 AM AKST 4:29 PM AKST
Nautical Twilight 8:04 AM AKST 5:35 PM AKST
Astronomical Twilight 7:06 AM AKST 6:33 PM AKST
Moon 6:59 AM AKST (1/8) 12:33 PM AKST (1/8)
Length of Visible Light 7h 18m
Length of Day
4h 57m
Waning Crescent, 12% of the Moon is Illuminated
Jan 8
Waning Crescent
Jan 11
New
Jan 18
First Quarter
Jan 26
Full
Feb 3
Last Quarter

Hourly Weather History & Observations

Time (AKST) Temp. Windchill Dew Point Humidity Pressure Visibility Wind Dir Wind Speed Gust Speed Precip Events Conditions
12:09 AM 3.2 °F - -0.4 °F 85% 29.44 in 10.0 mi Calm Calm - N/A   Partly Cloudy
12:53 AM 1.9 °F -5.6 °F -0.9 °F 88% 29.59 in 10.0 mi West 3.5 mph - N/A   Clear
1:53 AM 1.0 °F -6.7 °F -2.0 °F 87% 29.62 in 10.0 mi West 3.5 mph - N/A   Clear
2:53 AM 1.0 °F -8.7 °F -2.0 °F 87% 29.65 in 10.0 mi West 4.6 mph - N/A   Partly Cloudy
3:53 AM 1.0 °F -6.7 °F -2.0 °F 87% 29.68 in 10.0 mi WSW 3.5 mph - N/A   Clear
4:13 AM 1.4 °F -8.3 °F -2.2 °F 85% 29.56 in 10.0 mi West 4.6 mph - N/A   Mostly Cloudy
4:53 AM 1.9 °F - -0.9 °F 88% 29.70 in 10.0 mi Calm Calm - N/A   Overcast
5:53 AM 1.9 °F -7.6 °F -0.9 °F 88% 29.73 in 10.0 mi NW 4.6 mph - N/A   Overcast
6:53 AM 3.0 °F -6.4 °F 1.0 °F 91% 29.76 in 9.0 mi West 4.6 mph - 0.00 in Snow Light Snow
7:53 AM 3.9 °F -6.9 °F 1.0 °F 88% 29.79 in 9.0 mi West 5.8 mph - 0.00 in Snow Light Snow
8:53 AM 3.9 °F -6.9 °F 1.0 °F 88% 29.83 in 9.0 mi West 5.8 mph - 0.00 in Snow Light Snow
9:53 AM 3.9 °F -9.4 °F 1.0 °F 88% 29.88 in 9.0 mi West 8.1 mph - 0.00 in Snow Light Snow
10:25 AM 3.2 °F -10.3 °F 1.4 °F 92% 29.75 in 9.0 mi West 8.1 mph - 0.00 in Snow Light Snow
10:53 AM 3.9 °F -9.4 °F -0.0 °F 84% 29.92 in 9.0 mi West 8.1 mph - 0.00 in Snow Light Snow
11:16 AM 3.2 °F -9.1 °F 1.4 °F 92% 29.78 in 6.0 mi West 6.9 mph - 0.00 in Snow Light Snow
11:53 AM 5.0 °F -4.1 °F 1.0 °F 84% 29.94 in 6.0 mi West 4.6 mph - 0.00 in Snow Light Snow
12:53 PM 6.1 °F -2.8 °F 1.9 °F 83% 29.97 in 4.0 mi West 4.6 mph - 0.00 in Snow Light Snow
1:11 PM 6.8 °F -2.0 °F 1.4 °F 79% 29.83 in 2.0 mi WNW 4.6 mph - 0.00 in Snow Light Snow
1:18 PM 6.8 °F -2.0 °F 1.4 °F 79% 29.83 in 1.0 mi WNW 4.6 mph - 0.00 in Snow Light Snow
1:53 PM 6.1 °F -0.9 °F 1.9 °F 83% 30.00 in 1.0 mi West 3.5 mph - 0.01 in Snow Light Snow
2:49 PM 6.8 °F -0.1 °F 1.4 °F 79% 29.87 in 0.8 mi West 3.5 mph - 0.01 in Snow Light Snow
2:53 PM 6.1 °F -0.9 °F 3.0 °F 87% 30.02 in 0.8 mi West 3.5 mph - 0.01 in Snow Light Snow
3:05 PM 6.8 °F -3.5 °F 1.4 °F 79% 29.88 in 1.5 mi West 5.8 mph - 0.00 in Snow Light Snow
3:19 PM 6.8 °F -0.1 °F 1.4 °F 79% 29.88 in 0.5 mi West 3.5 mph - 0.00 in Fog , Snow Snow
3:29 PM 6.8 °F -2.0 °F 1.4 °F 79% 29.89 in 1.0 mi West 4.6 mph - 0.00 in Snow Light Snow
3:35 PM 6.8 °F -3.5 °F 1.4 °F 79% 29.89 in 3.0 mi West 5.8 mph - 0.00 in Snow Light Snow
3:53 PM 6.1 °F -5.6 °F 1.9 °F 83% 30.04 in 7.0 mi West 6.9 mph - 0.01 in Snow Light Snow
4:53 PM 6.1 °F -0.9 °F 1.9 °F 83% 30.06 in 7.0 mi West 3.5 mph - 0.00 in Snow Light Snow
5:53 PM 6.1 °F -0.9 °F 1.9 °F 83% 30.09 in 4.0 mi West 3.5 mph - 0.00 in Snow Light Snow
6:53 PM 6.1 °F - 1.9 °F 83% 30.10 in 4.0 mi Calm Calm - 0.00 in Snow Light Snow
7:53 PM 5.0 °F - 1.9 °F 87% 30.12 in 3.0 mi Calm Calm - 0.00 in Snow Light Snow
8:34 PM 6.8 °F - 1.4 °F 79% 29.98 in 9.0 mi Calm Calm - 0.00 in Snow Light Snow
8:53 PM 6.1 °F - 1.9 °F 83% 30.13 in 4.0 mi Calm Calm - 0.00 in Snow Light Snow
9:01 PM 6.8 °F - 3.2 °F 85% 29.99 in 6.0 mi Calm Calm - 0.00 in Snow Light Snow
9:53 PM 6.1 °F - 3.0 °F 87% 30.15 in 10.0 mi Calm Calm - 0.00 in   Overcast
10:05 PM 6.8 °F - 3.2 °F 85% 30.01 in 10.0 mi Calm Calm - N/A   Overcast
10:53 PM 6.1 °F - 1.9 °F 83% 30.17 in 9.0 mi Calm Calm - 0.00 in   Overcast
11:53 PM 6.1 °F -2.8 °F 3.0 °F 87% 30.19 in 10.0 mi SW 4.6 mph - 0.00 in   Overcast